GW7195 Weather Reports


time (UTC)temp
C
wind
direction
speed
KPH
gust
KPH
rain 1hr
cm
rain 24hr
cm
rain mn
cm
humidity
%
barometer
mb
20260508065139 6 168 4.8 8.0 0.00 0.00 0.00 61 822.6
20260508064637 6 196 3.2 3.2 0.00 0.00 0.00 61 822.6
20260508064135 6 178 0.0 1.6 0.00 0.00 0.00 61 822.2
20260508063632 6 157 0.0 1.6 0.00 0.00 0.00 59 822.6
20260508063130 6 182 0.0 1.6 0.00 0.00 0.00 66 822.6
20260508062627 6 180 0.0 0.0 0.00 0.00 0.00 60 822.2
20260508062123 6 107 4.8 4.8 0.00 0.00 0.00 58 822.6
20260508061621 7 168 0.0 0.0 0.00 0.00 0.00 59 822.2
20260508061118 7 189 1.6 3.2 0.00 0.00 0.00 60 822.2
20260508060615 7 175 1.6 3.2 0.00 0.00 0.00 58 822.6
20260508060112 6 184 1.6 3.2 0.00 0.05 0.05 60 822.6
20260508055608 6 180 0.0 1.6 0.00 0.05 0.05 61 822.2
20260508055105 6 185 0.0 1.6 0.00 0.05 0.05 60 822.6
20260508054601 6 176 1.6 1.6 0.00 0.05 0.05 61 822.6
20260508054059 6 174 1.6 3.2 0.00 0.05 0.05 63 822.6
20260508053555 6 185 3.2 3.2 0.00 0.05 0.05 62 822.2
20260508053053 6 186 3.2 3.2 0.00 0.05 0.05 58 822.2
20260508052551 6 187 3.2 3.2 0.00 0.05 0.05 60 822.2
20260508052047 6 183 0.0 1.6 0.00 0.05 0.05 58 822.2
20260508051543 7 170 1.6 1.6 0.00 0.05 0.05 56 822.2
20260508051039 7 164 1.6 1.6 0.00 0.05 0.05 57 822.2
20260508050535 7 185 3.2 4.8 0.00 0.05 0.05 60 822.2
20260508050033 7 204 1.6 3.2 0.00 0.05 0.05 57 822.2
20260508045529 7 181 1.6 1.6 0.00 0.05 0.05 60 822.2
20260508045027 7 186 1.6 3.2 0.00 0.05 0.05 58 822.2
20260508044524 7 190 3.2 4.8 0.00 0.05 0.05 56 822.2
20260508044019 7 162 3.2 4.8 0.00 0.05 0.05 59 822.2
20260508043516 6 190 4.8 4.8 0.00 0.05 0.05 62 822.6
20260508043014 6 163 1.6 1.6 0.00 0.05 0.05 66 822.2
20260508042510 6 192 1.6 1.6 0.00 0.05 0.05 64 822.2
20260508042008 5 213 1.6 3.2 0.00 0.05 0.05 67 822.2
20260508041504 5 213 1.6 1.6 0.00 0.05 0.05 71 822.2
20260508041001 5 216 1.6 1.6 0.00 0.05 0.05 69 822.2
20260508040458 5 215 1.6 3.2 0.00 0.05 0.05 70 822.6
20260508035956 6 226 0.0 1.6 0.00 0.05 0.05 69 822.2
20260508035452 6 227 0.0 0.0 0.00 0.05 0.05 66 822.6
20260508034949 6 227 0.0 0.0 0.00 0.05 0.05 63 822.6
20260508034446 7 226 3.2 3.2 0.00 0.05 0.05 58 822.6
20260508033943 6 185 1.6 1.6 0.00 0.05 0.05 66 822.2
20260508033441 7 164 0.0 0.0 0.00 0.05 0.05 60 822.2
20260508032938 7 150 4.8 4.8 0.00 0.05 0.05 59 822.6
20260508032435 7 164 0.0 0.0 0.00 0.05 0.05 60 822.2
20260508031932 7 215 0.0 1.6 0.00 0.05 0.05 58 822.2
20260508031430 8 215 1.6 1.6 0.00 0.05 0.05 54 822.2
20260508030925 8 210 1.6 1.6 0.00 0.05 0.05 53 821.9
20260508030422 8 165 0.0 0.0 0.00 0.05 0.05 55 821.9
20260508025919 8 221 1.6 3.2 0.00 0.05 0.05 53 822.2
20260508025416 8 255 1.6 3.2 0.00 0.05 0.05 53 821.9
20260508024913 8 188 8.0 14.5 0.00 0.05 0.05 52 822.2
20260508024409 8 198 3.2 3.2 0.00 0.05 0.05 53 821.9
20260508023906 8 142 16.1 22.5 0.00 0.05 0.05 50 822.2
20260508023403 9 216 4.8 4.8 0.00 0.05 0.05 51 821.9
20260508022900 8 147 1.6 3.2 0.00 0.05 0.05 51 822.2
20260508022355 8 217 1.6 1.6 0.00 0.05 0.05 54 821.9
20260508021853 8 184 1.6 1.6 0.00 0.05 0.05 56 821.9
20260508021349 9 221 1.6 3.2 0.00 0.05 0.05 54 821.9
20260508020845 8 140 8.0 9.7 0.00 0.05 0.05 51 821.9
20260508020343 9 165 0.0 0.0 0.00 0.05 0.05 53 821.9
20260508015840 9 161 0.0 0.0 0.00 0.05 0.05 51 821.9
20260508015337 10 161 0.0 1.6 0.00 0.05 0.05 50 821.9
20260508014834 10 213 4.8 4.8 0.00 0.05 0.05 49 821.5
20260508014331 10 212 0.0 0.0 0.00 0.05 0.05 50 821.9
20260508013831 9 142 3.2 4.8 0.00 0.05 0.05 51 821.5
20260508013328 9 211 1.6 1.6 0.00 0.05 0.05 51 821.5
20260508012826 9 218 1.6 1.6 0.00 0.05 0.05 49 821.5
20260508012323 10 235 3.2 3.2 0.00 0.05 0.05 57 821.5
20260508011821 10 197 0.0 0.0 0.00 0.05 0.05 52 821.1
20260508011318 10 214 0.0 0.0 0.00 0.05 0.05 47 821.1
20260508010815 10 253 1.6 1.6 0.00 0.05 0.05 47 821.5
20260508010313 10 104 9.7 14.5 0.00 0.05 0.05 47 821.1
20260508005809 11 139 3.2 3.2 0.00 0.05 0.05 46 821.1
20260508005306 11 167 3.2 3.2 0.00 0.05 0.05 45 821.1
20260508004802 11 145 4.8 4.8 0.00 0.05 0.05 45 821.1
20260508004258 11 184 3.2 3.2 0.00 0.05 0.05 46 821.1
20260508003755 12 159 6.4 9.7 0.00 0.05 0.05 44 821.1
20260508003253 12 125 8.0 11.3 0.00 0.05 0.05 41 821.1
20260508002749 12 160 11.3 12.9 0.00 0.05 0.05 43 820.8
20260508002246 12 147 1.6 1.6 0.00 0.05 0.05 43 820.8
20260508001742 13 168 17.7 20.9 0.00 0.05 0.05 42 821.1
20260508001238 12 136 11.3 14.5 0.00 0.05 0.05 43 821.1
20260508000734 12 152 12.9 22.5 0.00 0.05 0.05 43 821.1
20260508000234 12 115 6.4 9.7 0.00 0.05 0.05 42 821.1
20260507235728 12 175 11.3 14.5 0.00 0.05 0.05 42 821.1
20260507235225 12 176 8.0 9.7 0.00 0.05 0.05 43 821.1
20260507234722 11 133 4.8 8.0 0.00 0.05 0.05 44 821.1
20260507234219 11 138 6.4 9.7 0.00 0.05 0.05 42 820.8
20260507233715 12 187 1.6 1.6 0.00 0.05 0.05 43 821.1
20260507233213 13 182 8.0 14.5 0.00 0.05 0.05 41 820.8
20260507232710 13 123 8.0 11.3 0.00 0.05 0.05 38 821.1
20260507232207 13 174 3.2 11.3 0.00 0.05 0.05 40 820.8
20260507231704 12 215 11.3 14.5 0.00 0.05 0.05 40 821.1
20260507231201 14 153 17.7 20.9 0.00 0.05 0.05 39 820.8
20260507230657 13 109 3.2 3.2 0.00 0.05 0.05 40 821.1
20260507230155 13 156 8.0 9.7 0.00 0.05 0.05 41 820.8
20260507225654 14 102 8.0 12.9 0.00 0.05 0.05 40 821.1
20260507225151 13 47 4.8 9.7 0.00 0.05 0.05 41 820.8
20260507224647 12 110 4.8 8.0 0.00 0.05 0.05 43 821.1
20260507224143 12 168 4.8 8.0 0.00 0.05 0.05 42 821.1
20260507223640 12 151 6.4 8.0 0.00 0.05 0.05 42 821.1
20260507223137 12 112 11.3 12.9 0.00 0.05 0.05 43 820.8
20260507222633 12 138 4.8 4.8 0.00 0.05 0.05 43 821.1
20260507222130 12 182 0.0 0.0 0.00 0.05 0.05 45 821.1
20260507221626 11 106 8.0 11.3 0.00 0.05 0.05 44 821.1
20260507221123 11 73 4.8 4.8 0.00 0.05 0.05 43 821.1
20260507220620 11 136 1.6 3.2 0.00 0.05 0.05 45 821.1
20260507220118 11 172 1.6 4.8 0.00 0.05 0.05 46 821.1
20260507215613 11 177 1.6 1.6 0.00 0.05 0.05 46 821.5
20260507215112 11 151 4.8 8.0 0.00 0.05 0.05 43 821.5
20260507214609 11 211 6.4 8.0 0.00 0.05 0.05 43 821.9
20260507214104 11 167 6.4 9.7 0.00 0.05 0.05 45 821.9
20260507213601 11 156 4.8 8.0 0.00 0.05 0.05 44 821.5
20260507213058 12 122 8.0 12.9 0.00 0.05 0.05 43 821.9
20260507212554 12 168 6.4 9.7 0.00 0.05 0.05 45 821.9
20260507212051 11 107 9.7 11.3 0.00 0.05 0.05 46 821.9
20260507211548 11 175 3.2 3.2 0.00 0.05 0.05 47 821.9
20260507211044 11 60 8.0 9.7 0.00 0.05 0.05 46 821.9
20260507210541 12 158 4.8 8.0 0.00 0.05 0.05 45 821.9
20260507210038 12 117 11.3 20.9 0.00 0.05 0.05 47 821.9
20260507205534 12 160 1.6 1.6 0.00 0.05 0.05 47 821.9
20260507205031 12 165 6.4 9.7 0.00 0.05 0.05 47 822.2
20260507204527 11 179 3.2 4.8 0.00 0.05 0.05 50 822.2
20260507204025 10 146 8.0 11.3 0.00 0.05 0.05 48 822.6
20260507203523 11 190 3.2 3.2 0.00 0.05 0.05 47 822.2
20260507203020 11 150 8.0 11.3 0.00 0.05 0.05 49 821.9
20260507202515 11 190 0.0 0.0 0.00 0.05 0.05 54 822.2
20260507202012 10 123 4.8 9.7 0.00 0.05 0.05 49 822.2
20260507201508 11 168 14.5 17.7 0.00 0.05 0.05 48 822.6
20260507201004 11 157 4.8 8.0 0.00 0.05 0.05 53 822.2
20260507200459 10 85 12.9 16.1 0.00 0.05 0.05 50 822.6
20260507195955 11 176 3.2 3.2 0.00 0.05 0.05 51 822.6
20260507195453 10 127 17.7 20.9 0.00 0.05 0.05 48 822.6
20260507194950 10 135 4.8 8.0 0.00 0.05 0.05 50 822.6
20260507194447 10 77 9.7 14.5 0.00 0.05 0.05 50 822.2
20260507193942 10 149 8.0 11.3 0.00 0.05 0.05 51 822.6
20260507193440 10 155 4.8 8.0 0.00 0.05 0.05 51 822.6
20260507192937 10 92 1.6 3.2 0.00 0.05 0.05 53 822.6
20260507192433 11 152 4.8 9.7 0.00 0.05 0.05 50 822.6
20260507191930 11 61 4.8 4.8 0.00 0.05 0.05 50 822.6
20260507191426 10 150 11.3 16.1 0.00 0.05 0.05 50 822.6
20260507190922 9 122 9.7 16.1 0.00 0.05 0.05 55 822.6
20260507190420 8 173 8.0 9.7 0.00 0.05 0.05 59 822.6
20260507185919 8 146 1.6 3.2 0.03 0.05 0.05 56 822.6
20260507185416 8 191 0.0 0.0 0.03 0.05 0.05 61 822.6
20260507184913 8 153 1.6 1.6 0.03 0.05 0.05 60 822.6
20260507184410 8 162 0.0 1.6 0.03 0.05 0.05 62 822.6
20260507183908 8 117 1.6 3.2 0.00 0.03 0.03 59 823.0
20260507183405 9 171 1.6 1.6 0.00 0.03 0.03 57 822.6
20260507182902 9 76 4.8 4.8 0.00 0.03 0.03 55 822.6
20260507182357 8 303 3.2 3.2 0.00 0.03 0.03 59 822.6
20260507181854 8 265 3.2 4.8 0.00 0.03 0.03 58 822.6
20260507181350 8 344 4.8 4.8 0.00 0.03 0.03 60 822.6
20260507180847 7 280 3.2 3.2 0.00 0.03 0.03 76 822.6
20260507180344 6 186 0.0 0.0 0.00 0.03 0.03 82 823.0
20260507175839 5 186 0.0 0.0 0.00 0.03 0.03 83 823.0
20260507175337 5 186 0.0 0.0 0.00 0.03 0.03 87 823.0
20260507174834 5 186 0.0 0.0 0.00 0.03 0.03 88 823.3
20260507174332 4 192 0.0 1.6 0.00 0.03 0.03 81 823.3
20260507173829 4 191 0.0 1.6 0.00 0.03 0.03 86 823.3
20260507173326 4 220 0.0 0.0 0.00 0.03 0.03 81 823.3
20260507172822 5 221 0.0 1.6 0.00 0.03 0.03 80 823.3
20260507172319 5 223 1.6 3.2 0.00 0.03 0.03 76 823.3
20260507171815 5 184 1.6 1.6 0.00 0.03 0.03 74 823.3
20260507171312 5 180 1.6 1.6 0.00 0.03 0.03 75 823.3
20260507170809 5 149 8.0 9.7 0.00 0.03 0.03 73 823.3
20260507170305 5 159 8.0 9.7 0.00 0.03 0.03 73 823.7
20260507165801 5 180 9.7 11.3 0.00 0.03 0.03 71 823.3
20260507165257 5 173 11.3 12.9 0.00 0.03 0.03 70 823.3
20260507164754 4 144 8.0 12.9 0.00 0.03 0.03 74 823.7
20260507164251 5 147 3.2 4.8 0.00 0.03 0.03 78 823.3
20260507163748 3 159 4.8 8.0 0.00 0.03 0.03 74 823.7
20260507163246 3 181 4.8 4.8 0.00 0.03 0.03 91 823.7
20260507162741 3 175 1.6 1.6 0.00 0.03 0.03 86 823.3
20260507162237 3 182 0.0 0.0 0.00 0.03 0.03 89 823.7
20260507161735 3 179 1.6 3.2 0.00 0.03 0.03 91 823.3
20260507161231 3 192 0.0 0.0 0.00 0.03 0.03 92 823.7
20260507160726 3 203 1.6 1.6 0.00 0.03 0.03 90 823.7
20260507160223 3 160 6.4 8.0 0.00 0.03 0.03 89 823.7
20260507155720 4 178 0.0 1.6 0.03 0.03 0.03 86 823.7
20260507155216 3 176 0.0 1.6 0.03 0.03 0.03 83 823.7
20260507154712 4 156 1.6 3.2 0.00 0.00 0.00 79 823.7
20260507154210 4 187 0.0 0.0 0.00 0.00 0.00 80 823.7
20260507153707 5 187 0.0 0.0 0.00 0.00 0.00 80 823.7
20260507153203 5 182 0.0 1.6 0.00 0.00 0.00 77 823.7
20260507152659 4 168 1.6 1.6 0.00 0.00 0.00 78 823.7
20260507152155 5 171 4.8 4.8 0.00 0.00 0.00 77 823.7
20260507151652 5 215 0.0 0.0 0.00 0.00 0.00 77 823.3
20260507151148 6 186 0.0 0.0 0.00 0.00 0.00 67 823.3
20260507150646 5 186 0.0 0.0 0.00 0.00 0.00 71 823.7
20260507150142 6 183 1.6 1.6 0.00 0.00 0.00 68 823.7
20260507145637 5 167 1.6 1.6 0.00 0.00 0.00 72 823.7
20260507145135 5 183 0.0 1.6 0.00 0.00 0.00 75 823.7
20260507144631 5 194 0.0 1.6 0.00 0.00 0.00 76 823.7
20260507144130 5 191 1.6 3.2 0.00 0.00 0.00 75 823.3
20260507143626 4 182 1.6 1.6 0.00 0.00 0.00 73 823.7
20260507143123 3 197 0.0 0.0 0.00 0.00 0.00 74 823.3
20260507142619 2 212 1.6 1.6 0.00 0.00 0.00 82 823.7
20260507142116 2 269 3.2 3.2 0.00 0.00 0.00 86 823.3
20260507141612 2 200 0.0 0.0 0.00 0.00 0.00 82 823.7
20260507141109 2 200 0.0 0.0 0.00 0.00 0.00 83 823.3
20260507140605 2 200 0.0 0.0 0.00 0.00 0.00 83 823.7
20260507135600 0 201 3.2 3.2 0.00 0.00 0.00 86 823.7
20260507135057 0 190 0.0 0.0 0.00 0.00 0.00 85 823.7
20260507134553 0 197 0.0 0.0 0.00 0.00 0.00 91 823.3
20260507134049 0 197 0.0 0.0 0.00 0.00 0.00 91 823.3
20260507133545 -1 192 1.6 1.6 0.00 0.00 0.00 92 823.3
20260507133044 -1 200 0.0 0.0 0.00 0.00 0.00 93 823.0
20260507132540 -2 195 1.6 1.6 0.00 0.00 0.00 94 823.3
20260507132036 -2 197 1.6 1.6 0.00 0.00 0.00 94 823.3
20260507131533 -2 200 0.0 1.6 0.00 0.00 0.00 95 823.3
20260507131031 -3 197 1.6 1.6 0.00 0.00 0.00 95 823.3
20260507130527 -3 197 0.0 0.0 0.00 0.00 0.00 95 823.3
20260507130026 -3 190 0.0 1.6 0.00 0.00 0.00 96 823.3
20260507125524 -3 200 0.0 0.0 0.00 0.00 0.00 95 823.0
20260507125021 -3 200 0.0 1.6 0.00 0.00 0.00 95 823.0
20260507124517 -3 199 1.6 1.6 0.00 0.00 0.00 96 823.0
20260507124015 -4 192 0.0 0.0 0.00 0.00 0.00 97 823.0
20260507123513 -4 198 1.6 1.6 0.00 0.00 0.00 97 823.0
20260507123010 -5 198 0.0 0.0 0.00 0.00 0.00 98 823.0
20260507122504 -5 198 0.0 0.0 0.00 0.00 0.00 98 823.0
20260507122001 -5 194 1.6 1.6 0.00 0.00 0.00 98 823.0
20260507121456 -5 196 0.0 0.0 0.00 0.00 0.00 98 823.0
20260507120952 -5 198 1.6 3.2 0.00 0.00 0.00 97 823.0
20260507120449 -5 198 1.6 1.6 0.00 0.00 0.00 98 823.3
20260507115946 -5 200 0.0 0.0 0.00 0.00 0.00 97 823.0
20260507115442 -5 198 1.6 1.6 0.00 0.00 0.00 97 823.0
20260507114938 -5 197 1.6 1.6 0.00 0.00 0.00 98 823.0
20260507114434 -5 198 0.0 1.6 0.00 0.00 0.00 97 822.6
20260507113932 -5 197 0.0 0.0 0.00 0.00 0.00 97 823.0
20260507113428 -5 198 1.6 1.6 0.00 0.00 0.00 98 823.0
20260507112926 -5 191 1.6 3.2 0.00 0.00 0.00 97 823.3
20260507112423 -5 185 4.8 4.8 0.00 0.00 0.00 98 823.0
20260507111920 -5 213 4.8 4.8 0.00 0.00 0.00 98 823.0
20260507111418 -5 198 0.0 1.6 0.00 0.00 0.00 98 823.0
20260507110913 -5 196 1.6 1.6 0.00 0.00 0.00 98 822.6
20260507110410 -5 182 3.2 3.2 0.00 0.00 0.00 98 823.0
20260507105907 -5 169 4.8 4.8 0.00 0.00 0.00 98 823.0
20260507105403 -5 191 1.6 3.2 0.00 0.00 0.00 98 823.0
20260507104900 -5 189 1.6 1.6 0.00 0.00 0.00 97 823.3
20260507104357 -5 192 1.6 1.6 0.00 0.00 0.00 97 823.3
20260507103853 -5 201 1.6 1.6 0.00 0.00 0.00 97 823.0
20260507103349 -5 199 1.6 3.2 0.00 0.00 0.00 97 823.0
20260507102846 -5 190 0.0 1.6 0.00 0.00 0.00 97 823.0
20260507102342 -5 197 1.6 1.6 0.00 0.00 0.00 97 823.3
20260507101839 -5 197 1.6 1.6 0.00 0.00 0.00 97 823.0
20260507101339 -5 196 1.6 1.6 0.00 0.00 0.00 97 823.0
20260507100837 -5 196 1.6 1.6 0.00 0.00 0.00 97 823.0
20260507100334 -5 203 3.2 3.2 0.00 0.00 0.00 97 822.6
20260507095832 -5 197 0.0 1.6 0.00 0.00 0.00 96 822.6
20260507095328 -5 192 0.0 0.0 0.00 0.00 0.00 96 822.6
20260507094826 -5 172 4.8 4.8 0.00 0.00 0.00 97 822.6
20260507094322 -5 197 1.6 1.6 0.00 0.00 0.00 97 823.0
20260507093819 -5 200 1.6 3.2 0.00 0.00 0.00 96 823.0
20260507093318 -5 197 1.6 1.6 0.00 0.00 0.00 96 823.3
20260507092815 -5 171 1.6 1.6 0.00 0.00 0.00 96 823.0
20260507092312 -5 196 1.6 1.6 0.00 0.00 0.00 96 823.0
20260507091808 -5 192 1.6 1.6 0.00 0.00 0.00 95 823.0
20260507091305 -5 192 1.6 1.6 0.00 0.00 0.00 95 823.0
20260507090805 -5 180 3.2 3.2 0.00 0.00 0.00 95 823.0
20260507090302 -5 198 0.0 1.6 0.00 0.00 0.00 95 823.0
20260507085759 -5 202 1.6 1.6 0.00 0.00 0.00 96 822.6
20260507085256 -5 197 1.6 1.6 0.00 0.00 0.00 96 823.0
20260507084753 -5 203 4.8 4.8 0.00 0.00 0.00 96 823.0
20260507084249 -5 186 4.8 4.8 0.00 0.00 0.00 96 823.0
20260507083747 -5 202 4.8 4.8 0.00 0.00 0.00 97 822.6
20260507083243 -5 200 0.0 1.6 0.00 0.00 0.00 96 822.6
20260507082739 -5 197 1.6 1.6 0.00 0.00 0.00 96 823.0
20260507082235 -5 197 0.0 1.6 0.00 0.00 0.00 97 823.3
20260507081732 -5 197 0.0 0.0 0.00 0.00 0.00 95 823.3
20260507081228 -5 197 1.6 3.2 0.00 0.00 0.00 96 823.3
20260507080725 -5 197 1.6 3.2 0.00 0.00 0.00 96 823.0
20260507080221 -5 197 3.2 3.2 0.00 0.00 0.00 96 823.0
20260507075717 -5 203 3.2 3.2 0.00 0.00 0.00 94 823.0
20260507075213 -5 197 3.2 3.2 0.00 0.00 0.00 96 823.3
20260507074710 -5 193 3.2 3.2 0.00 0.00 0.00 95 823.3
20260507074208 -5 192 1.6 1.6 0.00 0.00 0.00 95 823.3
20260507073704 -5 170 0.0 1.6 0.00 0.00 0.00 95 823.3
20260507073200 -5 190 3.2 3.2 0.00 0.00 0.00 95 823.0
20260507072659 -5 202 0.0 1.6 0.00 0.00 0.00 94 823.3
20260507072155 -5 204 3.2 3.2 0.00 0.00 0.00 93 823.3
20260507071653 -5 199 1.6 1.6 0.00 0.00 0.00 94 823.3
20260507071149 -5 194 1.6 1.6 0.00 0.00 0.00 93 823.3
20260507070646 -5 256 3.2 3.2 0.00 0.00 0.00 93 823.0
20260507070143 -5 205 1.6 1.6 0.00 0.00 0.00 94 823.0
20260507065639 -5 199 1.6 1.6 0.00 0.00 0.00 93 823.0